Helicity
130 52 89 60 78 72 98 95 121 122 164 172 163 145 120 112 100 98 78 74 62 68 77 86 89 69 56 52 41 43 43 54 35 34 37 38 41 45 37 40 47 50 54
102 107 107 57 74 88 97 135 129 170 158 167 159 148 128 123 112 115 99 91 84 80 84 95 92 79 65 60 56 35 38 51 42 31 24 39 50 51 53 52 56 63 57
92 81 126 99 84 85 99 141 170 186 205 175 198 198 193 186 154 122 116 111 103 92 98 108 101 93 73 69 66 56 40 45 53 64 41 48 68 57 63 66 66 74 69
103 122 118 146 100 94 120 153 172 198 289 248 223 182 155 148 119 123 127 136 120 112 120 126 115 102 84 74 69 58 50 43 55 65 86 90 80 77 74 80 80 80 82
112 118 12 122 106 163 136 164 169 193 246 281 234 243 204 185 168 164 152 150 137 137 138 137 130 109 91 82 72 65 59 61 66 73 68 88 98 107 101 111 104 92 89
125 127 120 44 114 114 132 144 197 206 268 273 275 258 241 221 182 185 172 164 162 160 154 145 135 111 103 88 80 71 70 75 77 83 94 102 106 118 118 116 111 104 97
103 125 134 87 118 149 172 132 214 222 266 284 258 257 232 200 155 177 189 179 188 169 151 152 133 118 106 91 81 77 78 80 89 97 112 119 130 119 114 106 107 88 72
117 83 75 93 82 137 174 209 249 248 261 268 260 283 252 213 175 178 193 194 174 169 170 154 135 124 106 96 86 88 92 98 103 120 128 128 124 108 102 104 100 116 73
76 113 55 53 89 128 133 200 222 272 341 288 293 281 269 238 221 202 206 213 208 203 177 150 141 125 112 99 99 105 108 116 127 139 136 127 116 104 94 82 74 91 130
31 71 93 56 68 100 138 193 214 324 343 424 345 338 259 241 243 254 237 224 225 197 170 158 147 138 124 118 122 130 133 143 149 137 127 119 108 102 95 90 87 83 97
67 88 108 119 58 112 165 201 257 338 399 470 493 460 318 310 298 292 268 238 213 186 176 168 162 152 147 144 150 160 157 156 145 130 127 127 113 108 104 101 105 107 117
92 50 71 68 90 118 161 223 315 364 512 768 603 486 431 316 341 332 297 227 228 200 190 184 178 174 169 166 169 173 163 153 148 137 126 124 108 110 111 110 120 127 136
65 116 78 92 112 179 234 329 398 481 580 598 507 436 450 378 377 412 355 255 234 216 204 194 194 190 190 196 190 173 156 142 130 122 121 118 113 114 118 119 129 134 137
65 94 111 108 127 164 266 397 479 506 529 513 459 412 428 376 371 331 305 261 229 228 223 210 211 213 202 182 160 146 131 117 114 109 110 107 104 105 108 107 123 137 152
91 85 102 98 132 175 250 358 436 447 423 428 426 430 451 414 476 312 282 279 252 236 225 224 219 209 186 151 130 121 113 106 104 102 101 106 123 127 143 152 165 160 162
136 120 117 133 152 184 234 327 358 347 322 342 373 417 457 477 355 318 325 263 261 242 238 235 215 162 157 151 130 109 103 99 102 110 110 119 104 142 156 166 156 151 168
155 133 158 166 192 199 213 290 320 341 333 350 373 411 411 389 302 264 258 242 267 221 210 198 179 167 144 124 106 96 94 95 102 105 107 112 132 138 152 143 123 119 133
128 162 165 197 213 211 244 339 303 300 323 358 357 346 345 319 272 282 283 253 204 205 186 171 160 133 129 114 107 93 94 96 102 108 116 124 134 147 152 146 151 147 138
111 158 189 231 242 253 268 346 357 385 377 377 344 304 284 288 284 257 227 218 212 178 173 149 128 117 124 120 128 101 100 99 108 121 117 119 122 144 138 155 148 135 122
126 149 240 257 265 277 327 381 413 387 388 339 342 270 260 250 224 214 212 185 181 179 149 147 137 135 128 146 143 120 105 98 113 108 113 116 128 129 121 133 136 132 123
167 213 268 308 311 310 349 400 368 369 318 275 259 243 224 213 209 207 191 185 172 157 147 146 140 137 134 123 124 120 104 103 108 115 118 113 108 99 94 105 108 115 90
176 236 355 413 337 322 399 432 402 365 331 306 274 265 232 228 218 206 187 165 144 141 140 138 128 121 115 118 115 119 115 110 98 91 89 87 73 67 82 86 99 83 84
166 256 427 465 383 285 371 475 377 325 315 327 298 290 249 217 188 165 156 158 145 134 133 137 134 117 104 113 120 111 99 85 80 78 76 48 60 61 71 85 79 82 101
178 246 399 453 455 379 373 422 395 368 350 331 292 240 210 203 195 184 163 151 145 148 155 141 121 122 124 123 114 104 87 80 77 75 66 74 73 71 75 84 93 105 101
237 301 456 498 505 445 443 360 332 311 304 274 252 228 204 181 169 170 157 154 162 152 142 135 121 110 112 123 103 93 82 88 87 78 89 91 83 87 100 103 101 99 101
329 426 481 535 489 469 460 381 321 284 266 249 208 173 155 155 151 142 160 173 152 128 128 115 99 101 92 84 80 84 81 75 73 86 84 83 95 101 103 103 93 82 76
Wind_Speed
75 51 49 46 46 50 52 51 42 34 33 33 33 34 33 30 27 24 20 16 17 19 20 22 24 26 28 30 30 32 34 35 33 32 33 33 34 36 35 35 38 43 45
65 60 52 48 48 51 46 49 48 40 34 35 33 36 32 32 28 26 22 21 19 18 19 20 21 23 25 28 30 28 31 34 36 32 32 35 34 35 36 36 38 43 43
76 65 54 48 48 50 51 47 45 44 48 35 32 31 29 29 31 29 27 22 19 17 18 18 19 21 24 27 29 30 30 30 35 37 35 37 40 38 35 37 38 47 42
73 74 69 54 51 49 54 51 56 51 47 44 40 36 38 36 35 27 25 21 18 18 17 17 18 20 22 25 27 29 30 31 32 35 39 39 39 42 40 37 39 47 44
76 73 69 62 52 48 53 50 54 54 52 45 41 37 38 39 28 26 22 24 22 18 16 16 16 18 21 23 25 27 29 32 34 36 35 38 39 41 41 44 42 43 45
84 77 71 66 59 50 44 51 50 56 55 51 46 40 37 34 30 29 28 27 22 20 17 15 15 17 19 21 23 25 28 32 34 36 38 39 41 42 43 44 46 48 45
79 82 75 72 68 60 55 55 45 49 53 53 50 45 41 37 34 30 30 28 27 22 16 14 15 16 18 20 22 25 28 32 35 37 39 40 41 41 43 45 48 48 49
70 76 79 79 73 71 67 59 44 44 54 58 53 45 40 39 36 32 30 26 22 19 14 15 14 15 16 19 22 25 29 32 35 38 40 41 42 42 44 46 50 55 49
75 75 74 77 80 74 74 70 61 50 54 54 53 51 44 39 34 30 26 24 22 18 15 13 14 15 17 20 23 29 31 34 37 39 41 41 42 43 44 45 47 51 58
64 67 68 73 75 75 72 70 69 61 55 44 49 48 45 40 34 30 30 26 21 18 15 14 14 17 19 21 27 30 33 35 39 40 41 42 43 44 46 47 49 50 55
59 61 57 60 69 71 70 69 65 63 58 53 52 41 48 36 25 25 23 24 22 19 16 16 17 20 22 25 28 31 33 36 38 39 41 43 45 47 48 51 53 55 57
50 53 56 49 53 63 65 64 61 58 55 51 44 38 32 27 26 20 20 23 21 17 14 14 17 20 23 26 29 32 33 35 38 40 42 45 48 50 53 55 58 59 59
52 48 47 45 43 48 53 54 54 52 48 43 42 38 33 31 26 28 18 15 14 13 12 14 17 20 24 26 28 30 33 36 39 42 45 48 52 55 57 59 60 61 63
53 46 41 39 35 38 43 47 47 46 45 44 41 37 34 26 23 23 18 11 10 11 13 14 16 19 22 25 28 31 34 37 41 44 47 51 54 57 59 61 62 63 67
49 45 39 37 33 29 33 39 41 43 43 42 39 36 28 28 20 16 14 12 11 12 12 13 17 21 24 28 30 34 37 41 44 47 50 52 55 57 59 62 63 66 68
36 34 36 33 34 32 30 33 38 40 40 39 36 31 28 21 20 18 14 11 9 12 13 14 18 25 28 29 33 37 40 44 48 51 53 55 56 60 61 62 63 64 68
29 22 23 23 28 32 32 31 34 35 35 36 33 29 25 23 19 15 13 11 12 11 15 19 21 25 30 33 36 39 43 47 49 53 56 59 59 60 62 62 62 62 63
32 27 25 23 20 26 32 30 30 32 34 31 29 27 24 22 18 13 13 13 14 14 18 21 25 29 34 36 39 43 46 49 52 54 57 59 60 59 62 63 64 65 64
37 27 26 23 22 24 28 29 25 27 32 32 31 28 23 21 18 16 12 11 9 15 21 25 28 32 36 40 43 46 49 52 55 55 56 57 58 59 63 66 69 69 67
34 26 24 25 25 25 23 23 27 23 27 24 22 23 19 13 11 6 6 10 17 18 22 28 33 37 39 42 47 50 52 55 56 55 54 55 59 63 63 65 68 71 70
29 26 26 28 28 26 24 23 27 25 23 22 21 19 14 11 8 6 9 14 19 24 30 34 38 40 42 46 49 51 53 54 57 57 59 58 60 62 61 62 66 67 71
26 29 29 27 27 27 27 26 25 25 24 23 20 16 12 9 10 12 17 21 26 32 38 40 43 43 45 48 49 52 52 52 55 58 59 59 60 62 62 63 65 68 68
25 28 31 29 28 27 28 28 27 26 25 22 18 15 13 13 14 14 18 26 31 37 41 43 45 46 46 48 49 50 50 51 55 55 58 61 61 64 62 63 67 67 62
23 24 31 32 28 29 27 28 26 23 22 20 17 13 13 15 18 22 26 32 37 41 43 43 46 48 49 50 48 48 51 53 54 57 60 61 63 62 62 63 60 58 57
19 23 27 28 28 27 27 24 24 22 21 18 16 15 16 20 22 27 32 36 37 39 40 45 46 48 49 49 50 54 55 57 59 62 61 61 62 64 64 60 57 56 56
17 19 22 24 23 24 23 22 21 20 19 17 17 18 18 22 27 32 35 36 36 37 40 42 44 44 44 48 51 54 56 57 59 60 60 62 63 64 62 59 57 56 56
Wind_Direction
253 259 257 252 250 247 240 237 235 231 233 238 245 253 256 262 267 276 284 304 322 335 350 1 14 16 14 20 28 23 24 23 22 28 25 24 23 20 21 20 17 10 8
253 252 250 253 249 245 240 237 237 232 232 240 245 256 254 261 265 271 279 291 307 324 340 354 5 11 11 14 19 21 14 14 11 19 16 9 13 12 11 11 8 5 7
255 247 245 246 248 246 243 237 233 233 238 238 245 253 258 262 263 266 271 282 299 316 332 346 359 5 4 6 12 13 6 7 8 10 8 1 353 0 5 360 360 356 1
256 251 245 245 244 250 246 244 240 237 236 236 241 241 250 253 260 260 268 278 292 305 323 340 353 359 359 2 7 10 8 2 1 4 4 4 360 351 349 357 354 349 352
255 252 244 244 246 246 246 246 243 241 238 236 239 239 248 255 260 260 262 272 282 298 316 331 345 352 354 359 4 7 4 358 355 356 359 358 358 355 350 342 347 348 345
254 254 252 246 246 242 241 245 243 242 240 239 239 238 242 249 253 253 257 265 276 290 305 320 335 343 350 356 0 2 359 354 353 353 353 351 348 347 346 342 341 339 341
256 253 251 247 243 240 240 241 241 240 240 239 239 241 245 249 251 248 254 259 269 279 290 309 322 332 342 350 354 353 352 347 347 347 347 347 346 346 345 341 338 336 336
261 256 254 251 248 244 242 239 236 238 239 239 239 241 244 250 254 253 257 260 264 272 284 301 316 329 338 343 345 345 345 344 343 343 342 342 343 344 342 339 337 332 333
263 262 258 253 249 246 246 242 238 236 234 234 239 242 245 249 254 256 256 259 267 273 280 295 309 322 331 334 336 334 335 338 338 339 339 340 341 342 341 339 337 334 329
269 264 261 255 251 249 248 245 240 237 235 221 232 240 245 250 253 255 258 261 266 269 274 291 306 315 324 330 328 330 333 334 336 337 338 339 340 341 340 338 335 332 327
273 268 267 261 254 250 246 244 241 234 229 232 241 233 241 244 248 255 257 259 264 268 276 290 302 311 318 324 327 330 332 333 336 338 338 339 339 338 337 335 333 329 327
288 276 269 267 258 250 245 240 237 236 233 231 230 228 223 239 247 244 251 257 262 271 280 296 307 315 321 325 327 329 333 334 336 337 337 336 336 334 333 331 330 329 328
290 286 273 267 262 250 241 237 233 230 227 223 223 227 232 240 256 251 243 246 256 268 288 301 310 318 323 327 331 335 335 335 336 335 334 333 332 330 330 330 329 328 327
291 287 281 268 263 251 237 232 228 223 221 222 224 228 234 238 244 249 240 241 246 270 291 307 318 322 327 331 333 333 333 334 333 333 332 331 330 329 329 328 327 327 326
291 284 279 268 258 249 235 224 221 219 220 220 225 231 233 240 236 224 234 243 264 281 290 309 322 326 326 327 330 329 331 330 330 330 330 330 330 330 329 328 328 327 326
293 282 276 265 254 244 230 221 218 221 221 223 225 227 227 228 226 228 243 246 268 285 309 320 318 315 325 330 330 328 329 328 327 327 329 329 329 329 329 329 327 327 325
283 263 258 252 248 237 232 220 220 222 223 225 226 224 218 209 215 222 229 253 279 296 308 311 320 325 327 327 328 329 328 327 327 327 327 327 329 329 329 329 329 328 327
275 260 245 240 228 227 228 224 216 215 217 215 214 214 208 207 212 221 245 263 275 294 306 319 322 322 325 327 327 327 327 327 327 328 328 328 329 330 331 330 329 329 329
270 254 236 221 217 214 220 221 215 212 209 206 212 212 204 208 221 230 248 274 308 310 312 321 324 323 325 326 326 327 327 327 327 328 329 330 330 332 331 329 327 327 328
261 244 222 214 206 202 201 205 215 194 202 200 188 203 202 188 206 217 271 297 305 319 323 323 324 324 325 327 327 327 326 325 327 329 330 331 331 331 330 329 328 327 328
252 232 219 210 210 200 192 191 200 199 186 180 180 187 195 208 229 264 298 308 313 318 318 321 324 324 325 325 326 327 327 327 327 328 329 331 331 331 331 331 329 328 328
249 235 215 209 202 204 197 194 194 192 168 167 187 195 202 231 266 284 296 305 310 311 313 317 318 322 324 326 328 328 329 330 328 327 329 331 331 331 332 331 330 329 328
253 233 220 202 203 199 195 197 191 176 171 183 198 218 235 255 277 296 308 310 314 314 316 316 317 321 326 328 329 330 330 330 328 329 330 330 331 330 331 331 329 329 329
251 228 208 208 204 200 196 186 186 189 192 202 211 222 244 270 292 305 310 311 313 314 316 318 321 322 324 326 330 331 330 330 330 330 330 330 331 331 331 332 333 334 333
249 218 199 201 204 196 187 183 188 190 203 212 227 247 267 284 297 308 313 313 319 319 320 321 322 322 323 326 327 327 327 328 329 330 331 332 332 332 333 334 336 336 335
232 211 199 187 190 191 192 197 200 202 210 226 246 264 281 295 303 309 314 322 325 326 325 325 324 325 326 327 327 327 328 328 329 330 330 331 332 332 334 335 336 336 336